Flag Weather past 2 weeks in Vaduz, Liechtenstein

Now
39 °F

Chilly.


Feels Like: 34 °F
Forecast: 46 / 60 °F
Wind: 6 mph from North

Location: Vaduz

Current Time: Nov 28, 2014 at 10:13:47 AM

Latest Report: Nov 28, 2014 at 9:00 AM


Visibility: N/A

Pressure: 29.83 "Hg

Humidity: 100%

Dew point: 39 °F

Location of VaduzLocation

Historic Weather in Vaduz — Graph

°F

Vaduz temperature yesterday

Maximum temperature yesterday: 46 °F (at 12:00 AM)
Minimum temperature yesterday: 42 °F (at 11:00 PM)
Average temperature yesterday: 44 °F

Past Weeks' High & Low Weather Summary

 TemperatureHumidityPressure
High65 °F (Nov 15, 12:00 AM)100% (Nov 22, 6:00 AM)30.31 "Hg (Nov 22, 6:00 AM)
Low35 °F (Nov 23, 9:00 AM)33% (Nov 14, 11:00 PM)29.55 "Hg (Nov 15, 8:00 PM)
Average46 °F85%29.99 "Hg
* Reported Nov 13 8:00 AM — Nov 28 8:00 AM, Vaduz, Weather by CustomWeather, © 2014

Note: Actual official high and low records may vary slightly from our data, if they occured in-between our weather recording intervals... More about our weather records

Advertising

Vaduz weather history for previous 24 hours

 ConditionsComfort  
Time TempWeatherWind HumidityBarometerVisibility
8:00 AM
Nov 28
38 °FChilly.3 mph100%29.82 "HgN/A
7:00 AM40 °FFog.1 mph99%29.81 "Hg1 mi
6:00 AM40 °FQuite cool.2 mph98%29.81 "HgN/A
5:00 AM41 °FQuite cool.2 mph98%29.82 "HgN/A
4:00 AM41 °FFog.3 mph97%29.83 "Hg5 mi
3:00 AM41 °FQuite cool.3 mph97%29.83 "HgN/A
2:00 AM42 °FQuite cool.3 mph95%29.83 "HgN/A
1:00 AM42 °FFog.6 mph94%29.83 "Hg5 mi
12:00 AM42 °FQuite cool.3 mph95%29.83 "HgN/A
11:00 PM
Nov 27
42 °FQuite cool.5 mph93%29.84 "HgN/A
10:00 PM43 °FFog.3 mph93%29.84 "Hg5 mi
9:00 PM43 °FQuite cool.3 mph91%29.85 "HgN/A
8:00 PM43 °FQuite cool.3 mph92%29.84 "HgN/A
7:00 PM43 °FFog.3 mph92%29.83 "Hg5 mi
6:00 PM44 °FQuite cool.3 mph91%29.81 "HgN/A
5:00 PM44 °FQuite cool.5 mph91%29.82 "HgN/A
4:00 PM45 °FLow clouds.3 mph91%29.81 "Hg2 mi
3:00 PM45 °FCool.3 mph91%29.80 "HgN/A
2:00 PM45 °FCool.5 mph92%29.80 "HgN/A
1:00 PM45 °FLow clouds.5 mph93%29.80 "Hg2 mi
12:00 PM44 °FQuite cool.3 mph93%29.81 "HgN/A
11:00 AM43 °FQuite cool.6 mph94%29.83 "HgN/A
10:00 AM43 °FLow clouds.5 mph98%29.83 "Hg2 mi
Weather by CustomWeather, © 2014

See weather overviewHow to use our weather pages